Orbital Elements at Epoch 2459000.5 (2020-May-31.0) TDB
Reference: JPL 16 (heliocentric ecliptic J2000)
Element | Value | Uncertainty (1-sigma) | Units |
e | .2276352374784612 | 6.0545e-08 | |
a | 2.66738557151426 | 1.5849e-08 | au |
q | 2.06019462349599 | 1.6193e-07 | au |
i | 5.470811227334064 | 8.658e-06 | deg |
node | 176.4904002464459 | 5.2583e-05 | deg |
peri | 318.2148517535061 | 5.6821e-05 | deg |
M | 15.43308484132509 | 1.668e-05 | deg |
tp | 2458932.285395381767 (2020-Mar-23.78539538) | 7.3616e-05 | TDB |
period | 1591.208621934543 4.36 | 1.4182e-05 3.883e-08 | d yr |
n | .226243117990602 | 2.0165e-09 | deg/d |
Q | 3.274576519532529 | 1.9457e-08 | au |
|
| | Orbit Determination Parameters
Additional Information
|